Content
SEND FEEDBACK

Daily
Averages
Monthly
Summary
United States of America

STEARNS, KENTUCKY


Home > North America > United States > Kentucky
Elevation: 142 feet     Latitude: 36 42N     Longitude: 084 29W

WEATHER
 
SELECT A DAY
Number of Records: 103,004;   Date Range: 2/23/06 - 8/28/14
 
SHARE

PRINT THIS DATA

[ ← Previous Day ]
WEATHER ALMANAC - JANUARY 23, 2013
[ Next Day → ]
[ °C ]   °F
Weather ElementAverageHighLow
Temperature29.8 °F41 °F (2:56 pm)14 °F (6:56 am)
Dewpoint14.6 °F27.1 °F (9:56 pm)5 °F (1:56 am)
Humidity55.3 %84 % (6:56 am)38 % (9:56 am)
Barometer30.30 in30.43 in (6:56 am)30.17 in (7:56 pm)
Wind Speed4.2 mph12.7 mph (2:56 pm)
Wind Gust18.4 mph (10:56 pm)
Weather ElementAverage
Visibility10 mi
Wind DirectionNE (39.6 °)

Weather ElementTotal
Precipitation---
Heating Degree Days37.5 (Base 65)
Averaged from 23 records on January 23, 2013
WEATHER CONDITIONS BREAKOUT
WIND DIRECTION BREAKOUT
WEATHER BY HOUR - JANUARY 23, 2013
[ °C ]   °F
Local TimeTemperatureDewpointHumidityBarometerVisibilityWind DirectionWind SpeedGust SpeedPrecipitationEventsConditions
1:56 AM23.0 °F5.0 °F46 %30.42 inCalmOvercast
2:56 AM23.0 °F5.0 °F46 %30.42 inCalmOvercast
3:56 AM22.1 °F7.2 °F53 %30.42 inCalmOvercast
4:56 AM21.0 °F7.2 °F55 %30.42 inCalmOvercast
5:56 AM21.0 °F9.1 °F60 %30.42 inCalmMostly Cloudy
6:56 AM14.0 °F10.0 °F84 %30.43 inCalmClear
7:56 AM21.0 °F10.0 °F63 %30.43 inCalmClear
8:56 AM25.2 °F5.0 °F42 %30.43 inCalmClear
9:56 AM29.1 °F6.1 °F38 %30.43 inSouth (170°)6.9 mphClear
10:56 AM31.1 °F8.1 °F38 %30.38 in10.0 miCalm
11:56 AM34.9 °F12.0 °F39 %30.33 in10.0 miENE (60°)8.1 mphPartly Cloudy
12:56 PM37.9 °F14.0 °F38 %30.28 in10.0 miENE (60°)8.1 mphClear
1:56 PM39.9 °F17.1 °F40 %30.25 in10.0 miEast (90°)8.1 mphClear
2:56 PM41.0 °F18.1 °F40 %30.23 in10.0 miENE (70°)12.7 mphClear
3:56 PM41.0 °F20.1 °F43 %30.21 in10.0 miENE (60°)6.9 mphClear
4:56 PM36.9 °F20.1 °F51 %30.19 in10.0 miENE (60°)5.8 mphClear
5:56 PM34.9 °F21.0 °F57 %30.18 in10.0 miNE (40°)6.9 mphClear
6:56 PM27.1 °F20.1 °F75 %30.19 in10.0 miCalmClear
7:56 PM24.1 °F19.0 °F81 %30.17 in10.0 miCalmClear
8:56 PM26.1 °F21.0 °F81 %30.17 in10.0 miCalmClear
9:56 PM38.8 °F27.1 °F63 %30.18 in10.0 miEast (80°)10.4 mphMostly Cloudy
10:56 PM37.9 °F27.1 °F65 %30.19 in10.0 miEast (100°)12.7 mph18.4 mphClear
11:56 PM34.9 °F27.1 °F73 %30.21 in10.0 miESE (120°)10.4 mphClear
Hourly data recorded from KEKQ, located miles away from Stearns, Kentucky







STORIES FROM OUR PARTNERS